STARLINK-4172 (53284 NORAD) Tracking and Keplerian Element Data

This shows tracking and keplerian element data for the satellite.

Feedback or suggestion? Click here.




ElementValue
Catalog53284
NameSTARLINK-4172
Epoch Orbit1081
Epoch Day270.25001157
Epoch Year2022
RAAN83.2088
Inclination53.2175
Eccentricity0.0001583
Argument of Perigee41.1689
Mean Anonmoly112.0364
Mean Motion15.63048887
Decay Rate-0.01062438
L11 53284U 22086AU 22270.25001157 -.01062438 00000+0 -12589-1 0 9995
L22 53284 53.2175 83.2088 0001583 41.1689 112.0364 15.63048887 10819

Live tracking and technical data element details for STARLINK-4172 (NORAD 53284). STARLINK-4172 can be tracked NOW for your location showing map with azimuth and elevation plus other details from your city location.

Track the satellite on the map from your city or location and see movement details for azimuth, elevation, latitude, longitude, range, height, and movement on the map or in text.







IsCatalogInMostPopularTable: catalog: 53284, numindb: 3
Update: records affected: 1



GetName: 53284 STARLINK-4172

Hit Count: updated at: Fri, 30 Sep 2022 03:06:56 GMT